Lid_Strength_Index
-1 -1 -2 -1 -1 -1 -1 -1 -1 -1 -1 -1 -1 -1 -1 -1 -1 1 3 1 -0 -1 -1 0 1 1 2 3 3 3 9 10 9 8 7 5 6 4 3 4 4 3 3 2 2
-1 -1 -2 -2 -1 -1 -1 -1 -1 -1 -1 -1 -1 -1 -1 -1 1 3 -0 -1 -1 -2 1 2 3 3 4 4 4 6 9 9 6 6 6 5 5 5 5 5 5 4 2 2 2
0 -0 -1 -2 -1 -1 -1 -1 -1 -1 -1 -1 -1 -1 -1 -1 4 4 -2 -1 -1 -1 0 1 2 3 5 4 5 6 9 6 6 5 5 6 5 4 6 7 5 5 4 3 2
1 1 -0 -0 -1 -1 -1 -1 -1 -1 -1 -1 -1 -1 -1 1 11 2 -1 -1 -2 -1 1 2 3 6 7 7 5 8 6 6 5 5 6 7 5 6 5 5 3 3 3 3 3
1 1 0 -0 -0 0 -1 -1 -1 -1 -1 -1 -1 -1 1 6 6 -0 -0 -1 -0 1 3 4 5 6 8 6 6 8 7 5 5 5 5 5 6 6 6 4 3 3 3 3 3
1 2 1 1 0 0 -0 -1 -1 -1 -1 -1 -1 -1 2 8 1 2 1 0 1 2 3 3 5 4 6 6 7 6 6 6 6 6 6 7 6 6 5 4 4 4 4 3 3
1 1 2 1 1 0 1 -1 -1 -1 -1 -1 -1 0 3 5 1 1 1 1 0 1 4 3 3 5 5 7 5 6 9 7 6 6 7 6 8 8 5 4 4 4 4 3 3
1 1 1 1 1 1 0 0 -1 -1 -1 -1 -1 1 5 1 1 2 1 1 0 0 2 1 2 4 5 5 7 9 8 11 7 7 6 7 11 6 4 5 5 4 4 4 3
1 1 1 1 2 1 0 1 -0 -1 -1 -1 1 2 6 1 3 2 1 2 2 1 1 1 3 6 6 9 10 9 12 11 10 6 7 8 10 6 5 5 5 5 4 4 3
0 0 1 1 1 1 0 1 0 -0 -0 0 1 5 4 5 2 2 2 2 3 4 4 5 6 8 8 10 14 12 12 10 10 8 8 9 9 7 6 6 6 5 4 4 4
-1 -1 -0 -0 0 1 1 3 5 6 4 6 6 5 4 2 1 3 2 3 4 5 9 7 10 12 9 8 9 9 11 11 9 8 9 10 9 8 7 7 6 6 5 5 4
-1 -1 -1 -1 -1 -0 1 6 5 5 8 4 4 4 3 2 6 4 3 6 6 10 7 10 13 8 7 8 9 10 11 11 9 8 9 10 10 8 7 7 7 7 6 6 5
-2 -1 -1 -1 -1 -0 2 6 2 3 8 7 5 5 4 3 6 6 4 5 7 9 9 11 9 8 8 9 10 10 11 11 11 9 9 10 11 9 7 7 6 6 6 6 5
-1 -1 -1 -1 1 2 4 3 3 4 13 11 8 6 4 4 7 3 3 5 7 10 9 10 7 9 10 10 10 12 9 10 11 12 14 10 16 11 9 9 8 7 6 6 6
-1 -1 -1 -1 1 3 4 2 3 5 20 10 8 3 4 6 6 6 3 5 9 9 9 11 10 10 11 10 9 11 10 11 11 12 13 13 14 13 10 11 9 7 7 6 5
-0 -0 -0 -0 0 1 2 2 5 14 20 12 9 9 9 7 7 6 6 5 6 8 9 9 8 9 9 9 9 9 11 12 12 14 18 14 13 14 12 10 9 8 7 6 5
-1 -1 0 0 3 0 3 5 14 18 10 13 12 9 10 10 9 9 9 10 11 15 14 11 11 9 8 11 10 11 13 16 18 19 18 12 14 13 10 8 8 8 7 6 5
-1 -1 -0 0 0 1 5 10 17 13 12 9 10 11 12 10 10 9 10 12 9 10 12 15 16 11 9 11 12 12 13 15 19 18 16 12 15 12 8 7 7 6 5 5 5
-1 0 1 0 -0 1 9 14 14 12 9 11 11 13 13 11 10 10 11 11 9 9 14 14 14 10 9 9 9 12 14 11 15 14 17 14 12 9 8 7 6 6 5 5 5
2 2 3 -0 -1 3 10 14 12 8 8 9 13 11 14 12 12 12 11 9 10 9 8 11 15 11 10 9 9 11 10 15 15 20 19 15 14 13 9 8 7 6 6 5 4
2 6 2 -1 0 6 12 12 10 7 7 9 11 12 11 12 11 12 11 9 8 8 8 10 12 13 11 12 13 13 14 13 13 14 19 19 15 9 9 8 7 7 5 5 5
4 10 1 -0 9 9 12 10 8 8 7 8 8 9 10 10 11 11 11 10 7 7 11 9 12 15 13 10 10 11 13 13 17 17 16 16 16 7 7 7 6 6 5 5 4
6 6 1 2 12 11 9 10 8 9 9 8 9 9 8 10 12 10 9 8 8 8 10 9 13 16 15 12 11 13 12 12 12 13 17 19 15 7 7 7 6 6 5 5 4
7 10 7 5 6 9 11 11 11 7 8 7 8 8 9 10 9 10 10 8 7 8 7 8 12 14 16 15 12 14 13 12 13 17 15 15 13 10 8 7 6 6 5 5 4
6 9 6 11 9 9 9 9 11 11 8 7 9 9 10 11 11 11 9 9 8 7 8 10 15 13 13 12 12 13 13 13 15 14 17 13 12 10 8 7 7 6 5 5 6
8 8 6 7 7 8 8 9 10 9 9 10 10 8 8 10 10 12 10 9 10 9 10 10 14 13 15 13 13 14 12 12 13 13 14 13 14 8 7 6 6 7 6 7 6
4 4 6 8 8 9 9 9 9 8 8 7 8 9 10 9 7 7 6 7 8 10 11 12 13 15 16 13 13 16 14 13 13 12 12 15 12 9 9 8 8 7 7 7 6